星链-3047 (STARLINK-3047 )

导读 | 豆包AI

STARLINK-3047是美国SpaceX公司星链星座的成员卫星,于2021年9月14日发射升空。作为低轨互联网通信卫星,它运行在近地轨道,搭载Ku/Ka波段通信载荷与霍尔推进系统,具备自主避撞能力,旨在为全球提供高速宽带互联网接入,助力偏远地区网络覆盖,同时也可服务于商业航运、航空通信及相关军事通信场景。

Basic Information
目录编号:
49174
目录名称:
STARLINK-3047
国际标识:
2021-082AW
轨道中心:
EARTH
卫星名称:
星链-3047
卫星全名:
星链-3047 (STARLINK-3047 )
卫星状态:
已陨落 最后检测时间 2025-10-30
发射日期:
2021-09-14 UTC
国别 :
美国 (US)
星等 :
--
Orbit Information
数据来源 国际轨道数据
星历时间: 2025-10-30T00:09:57+0800
轨道信息已过期136天
半长轴: 6566.098km
偏心率: 0.0010648
轨道倾角: 69.950°
近地点辐角 227.731°
升交点赤经 167.342°
平近点角 132.302°
近地点: 180.971km
远地点: 194.955km
周期: 88.251分钟
每日圈数: 16.317054
Detailed Information
固有亮度:
5
最大亮度:
2.5
卫星平台:
Starlink v1.5
覆盖范围:
全球
运营商:
太空探索技术公司
运营商所在国:
美国
制造商(研发单位):
太空探索技术公司
制造商所在国:
美国
使用方式:
暂无
Satellite Introduction
星链(Starlink)计划是由太空探索技术公司(SpaceX)提出的一个巨型低轨卫星互联网星座项目,计划在2019年至2024年间在太空搭建由约1.2万颗卫星组成的“星链”网络,其中1584颗将部署在地球上空550千米处的近地轨道,并从2020年开始工作。该卫星仍在工作。